Time,TemperatureF,DewpointF,PressureIn,WindDirection,WindDirectionDegrees,WindSpeedMPH,WindSpeedGustMPH,Humidity,HourlyPrecipIn,Conditions,Clouds,dailyrainin,SolarRadiationWatts/m^2,SoftwareType,DateUTC
2013-10-03 05:52:00,29.0,28.0,-100.00,SE,144,3.0,7.0,97,-99.99,,,0.03,1.000000,,2013-10-03 13:52:00,
2013-10-03 06:02:00,29.0,28.0,-100.00,SE,144,3.0,7.0,97,-99.99,,,0.03,1.000000,,2013-10-03 14:02:00,
2013-10-03 06:11:00,29.0,28.0,-100.00,SE,144,3.0,7.0,97,-99.99,,,0.03,1.000000,,2013-10-03 14:11:00,
2013-10-03 06:21:00,29.0,28.0,-100.00,SE,144,3.0,7.0,97,-99.99,,,0.03,1.000000,,2013-10-03 14:21:00,
2013-10-03 08:53:00,29.0,26.0,-100.00,ENE,64,6.0,7.0,89,-99.99,,,0.03,4.000000,,2013-10-03 16:53:00,
2013-10-03 09:03:00,29.0,26.0,-100.00,ENE,64,6.0,7.0,89,-99.99,,,0.03,4.000000,,2013-10-03 17:03:00,
2013-10-03 09:12:00,29.0,26.0,-100.00,ENE,64,6.0,7.0,89,-99.99,,,0.03,4.000000,,2013-10-03 17:12:00,
2013-10-03 09:22:00,29.0,26.0,-100.00,ENE,64,6.0,7.0,89,-99.99,,,0.03,4.000000,,2013-10-03 17:22:00,
2013-10-03 10:52:00,30.0,28.0,-100.00,SSE,161,3.0,8.0,91,-99.99,,,0.03,56.000000,,2013-10-03 18:52:00,
2013-10-03 11:01:00,30.0,28.0,-100.00,SSE,161,3.0,8.0,91,-99.99,,,0.03,56.000000,,2013-10-03 19:01:00,
2013-10-03 11:11:00,30.0,28.0,-100.00,SSE,161,3.0,8.0,91,-99.99,,,0.03,56.000000,,2013-10-03 19:11:00,
2013-10-03 11:21:00,30.0,28.0,-100.00,SSE,161,3.0,8.0,91,-99.99,,,0.03,56.000000,,2013-10-03 19:21:00,
2013-10-03 11:52:00,34.0,31.0,-100.00,SSE,150,2.0,3.0,88,0.01,,,0.04,111.000000,,2013-10-03 19:52:00,
2013-10-03 12:02:00,34.0,31.0,-100.00,SSE,150,2.0,3.0,88,0.01,,,0.04,111.000000,,2013-10-03 20:02:00,
2013-10-03 12:11:00,34.0,31.0,-100.00,SSE,150,2.0,3.0,88,0.01,,,0.04,111.000000,,2013-10-03 20:11:00,
2013-10-03 12:21:00,34.0,31.0,-100.00,SSE,150,2.0,3.0,88,0.01,,,0.04,111.000000,,2013-10-03 20:21:00,
2013-10-03 12:52:00,42.0,34.0,-100.00,East,81,7.0,14.0,72,0.00,,,0.04,340.000000,,2013-10-03 20:52:00,
2013-10-03 13:02:00,42.0,34.0,-100.00,East,81,7.0,14.0,72,0.00,,,0.04,340.000000,,2013-10-03 21:02:00,
2013-10-03 13:12:00,42.0,34.0,-100.00,East,81,7.0,14.0,72,0.00,,,0.04,340.000000,,2013-10-03 21:12:00,
2013-10-03 13:21:00,42.0,34.0,-100.00,East,81,7.0,14.0,72,0.00,,,0.04,340.000000,,2013-10-03 21:21:00,
2013-10-03 13:54:00,44.0,33.0,-100.00,East,85,8.0,15.0,65,0.00,,,0.02,404.000000,,2013-10-03 21:54:00,
2013-10-03 14:04:00,44.0,33.0,-100.00,East,85,8.0,15.0,65,0.00,,,0.02,404.000000,,2013-10-03 22:04:00,
2013-10-03 14:13:00,44.0,33.0,-100.00,East,85,8.0,15.0,65,0.00,,,0.02,404.000000,,2013-10-03 22:13:00,
2013-10-03 14:23:00,44.0,33.0,-100.00,East,85,8.0,15.0,65,0.00,,,0.02,404.000000,,2013-10-03 22:23:00,
2013-10-03 14:54:00,43.0,32.0,-100.00,East,85,6.0,14.0,65,0.00,,,0.01,378.000000,,2013-10-03 22:54:00,
2013-10-03 15:03:00,43.0,32.0,-100.00,East,85,6.0,14.0,65,0.00,,,0.01,378.000000,,2013-10-03 23:03:00,
2013-10-03 15:12:00,43.0,32.0,-100.00,East,85,6.0,14.0,65,0.00,,,0.01,378.000000,,2013-10-03 23:12:00,
2013-10-03 15:21:00,43.0,32.0,-100.00,East,85,6.0,14.0,65,0.00,,,0.01,378.000000,,2013-10-03 23:21:00,
2013-10-03 15:52:00,41.0,31.0,-100.00,ENE,76,6.0,13.0,68,0.00,,,0.01,150.000000,,2013-10-03 23:52:00,
2013-10-03 16:02:00,41.0,31.0,-100.00,ENE,76,6.0,13.0,68,0.00,,,0.01,150.000000,,2013-10-04 00:02:00,
2013-10-03 16:12:00,41.0,31.0,-100.00,ENE,76,6.0,13.0,68,0.00,,,0.01,150.000000,,2013-10-04 00:12:00,
2013-10-03 16:21:00,41.0,31.0,-100.00,ENE,76,6.0,13.0,68,0.00,,,0.01,150.000000,,2013-10-04 00:21:00,
2013-10-03 16:52:00,41.0,32.0,-100.00,East,80,5.0,11.0,71,0.00,,,0.01,133.000000,,2013-10-04 00:52:00,
2013-10-03 17:02:00,41.0,32.0,-100.00,East,80,5.0,11.0,71,0.00,,,0.01,133.000000,,2013-10-04 01:02:00,
2013-10-03 17:12:00,41.0,32.0,-100.00,East,80,5.0,11.0,71,0.00,,,0.01,133.000000,,2013-10-04 01:12:00,
2013-10-03 17:21:00,41.0,32.0,-100.00,East,80,5.0,11.0,71,0.00,,,0.01,133.000000,,2013-10-04 01:21:00,
2013-10-03 17:52:00,40.0,32.0,-100.00,ENE,78,7.0,14.0,73,0.00,,,0.01,88.000000,,2013-10-04 01:52:00,
2013-10-03 18:02:00,40.0,32.0,-100.00,ENE,78,7.0,14.0,73,0.00,,,0.01,88.000000,,2013-10-04 02:02:00,
2013-10-03 18:12:00,40.0,32.0,-100.00,ENE,78,7.0,14.0,73,0.00,,,0.01,88.000000,,2013-10-04 02:12:00,
2013-10-03 18:22:00,40.0,32.0,-100.00,ENE,78,7.0,14.0,73,0.00,,,0.01,88.000000,,2013-10-04 02:22:00,
2013-10-03 18:52:00,39.0,31.0,-100.00,East,85,7.0,17.0,74,0.00,,,0.01,50.000000,,2013-10-04 02:52:00,
2013-10-03 19:02:00,39.0,31.0,-100.00,East,85,7.0,17.0,74,0.00,,,0.01,50.000000,,2013-10-04 03:02:00,
2013-10-03 19:12:00,39.0,31.0,-100.00,East,85,7.0,17.0,74,0.00,,,0.01,50.000000,,2013-10-04 03:12:00,
2013-10-03 19:22:00,39.0,31.0,-100.00,East,85,7.0,17.0,74,0.00,,,0.01,50.000000,,2013-10-04 03:22:00,
2013-10-03 20:00:00,38.0,31.0,-100.00,East,79,8.0,17.0,75,0.00,,,0.01,10.000000,,2013-10-04 04:00:00,
2013-10-03 20:25:00,38.0,31.0,-100.00,East,88,6.0,16.0,76,0.00,,,0.01,1.000000,,2013-10-04 04:25:00,
2013-10-03 21:09:00,38.0,31.0,-100.00,East,88,6.0,16.0,76,0.00,,,0.01,1.000000,,2013-10-04 05:09:00,
2013-10-03 21:21:00,38.0,31.0,-100.00,East,88,6.0,16.0,76,0.00,,,0.01,1.000000,,2013-10-04 05:21:00,
2013-10-03 21:58:00,36.0,31.0,-100.00,East,88,4.0,8.0,81,0.00,,,0.01,1.000000,,2013-10-04 05:58:00,
2013-10-03 22:06:00,36.0,31.0,-100.00,East,88,4.0,8.0,81,0.00,,,0.01,1.000000,,2013-10-04 06:06:00,
2013-10-03 22:16:00,36.0,31.0,-100.00,East,88,4.0,8.0,81,0.00,,,0.01,1.000000,,2013-10-04 06:16:00,
2013-10-03 22:24:00,36.0,31.0,-100.00,East,88,4.0,8.0,81,0.00,,,0.01,1.000000,,2013-10-04 06:24:00,
2013-10-03 22:57:00,35.0,31.0,-100.00,East,88,3.0,6.0,85,0.00,,,0.01,1.000000,,2013-10-04 06:57:00,
2013-10-03 23:05:00,35.0,31.0,-100.00,East,88,3.0,6.0,85,0.00,,,0.01,1.000000,,2013-10-04 07:05:00,
2013-10-03 23:15:00,35.0,31.0,-100.00,East,88,3.0,6.0,85,0.00,,,0.01,1.000000,,2013-10-04 07:15:00,
2013-10-03 23:24:00,35.0,31.0,-100.00,East,88,3.0,6.0,85,0.00,,,0.01,1.000000,,2013-10-04 07:24:00,
2013-10-03 23:57:00,34.0,31.0,-100.00,ENE,70,2.0,5.0,89,0.00,,,0.01,1.000000,,2013-10-04 07:57:00,